Ypsilanti, MI

10:28 PM EST on December 12, 2017 (GMT -0500)
Willow Run

Weather History for KYIP - June, 2012

Change the Weather History Date:

Tuesday, June 19, 2012

  Actual Average Record
Temperature  
Mean Temperature 86 °F -  
Max Temperature 98 °F 81 °F 98 °F (2012)
Min Temperature 75 °F 60 °F 46 °F (1999)
Cooling Degree Days 21    
Growing Degree Days 36 (Base 50)    
Moisture  
Dew Point 66 °F    
Average Humidity 51    
Maximum Humidity 69    
Minimum Humidity 35    
Precipitation  
Precipitation 0.00 in - - ()
Sea Level Pressure  
Sea Level Pressure 29.96 in    
Wind  
Wind Speed 11 mph (SW)    
Max Wind Speed 16 mph    
Max Gust Speed 23 mph    
Visibility 10 miles    
Events Rain    
Averages and records for this station are not official NWS values.
T = Trace of Precipitation, MM = Missing Value Source: NWS Daily Summary

Daily Weather History Graph

Daily Weather History Graph

Search for Another Location

Airport or City:

Trip Planner

Search our weather history database for the weather conditions in past years. The results will help you decide how hot, cold, wet, or windy it might be!

Date:

Astronomy

Jun. 19, 2012 Rise Set
Actual Time 5:57 AM EDT 9:13 PM EDT
Civil Twilight 5:22 AM EDT 9:48 PM EDT
Nautical Twilight 4:37 AM EDT 10:33 PM EDT
Astronomical Twilight 3:43 AM EDT 11:27 PM EDT
Moon 6:02 AM EDT (6/19) 9:16 PM EDT (6/19)
Length of Visible Light 16h 25m
Length of Day
15h 16m
New Moon, 0% of the Moon is Illuminated
Jun 19
New Moon
Jun 26
First Quarter
Jul 3
Full
Jul 10
Last Quarter
Jul 19
New

Hourly Weather History & Observations

Time (EDT) Temp. Heat Index Dew Point Humidity Pressure Visibility Wind Dir Wind Speed Gust Speed Precip Events Conditions
12:53 AM 78.1 °F - 64.9 °F 64% 29.91 in 10.0 mi South 6.9 mph - N/A   Clear
1:53 AM 79.0 °F - 64.0 °F 60% 29.90 in 10.0 mi SSW 10.4 mph - N/A   Clear
2:53 AM 79.0 °F - 64.0 °F 60% 29.88 in 10.0 mi SSW 15.0 mph - N/A   Clear
3:53 AM 78.1 °F - 64.0 °F 62% 29.89 in 10.0 mi SW 13.8 mph - N/A   Clear
4:53 AM 77.0 °F - 64.4 °F 65% 29.90 in 10.0 mi SSW 12.7 mph - N/A   Clear
5:53 AM 75.2 °F - 62.6 °F 65% 29.91 in 10.0 mi SSW 11.5 mph - N/A   Clear
6:53 AM 75.0 °F - 64.0 °F 69% 29.93 in 10.0 mi SSW 6.9 mph - N/A   Clear
7:53 AM 78.8 °F - 64.4 °F 61% 29.96 in 10.0 mi SSW 9.2 mph - N/A   Clear
8:53 AM 81.0 °F 82.7 °F 64.9 °F 58% 29.95 in 10.0 mi SW 12.7 mph - N/A   Clear
9:53 AM 84.0 °F 85.8 °F 64.9 °F 53% 29.96 in 10.0 mi SW 16.1 mph - N/A   Clear
10:53 AM 88.0 °F 90.3 °F 66.0 °F 48% 29.97 in 10.0 mi SW 16.1 mph - N/A   Clear
11:48 AM 89.6 °F 92.2 °F 66.2 °F 46% 30.01 in 10.0 mi SW 13.8 mph - N/A   Partly Cloudy
11:53 AM 90.0 °F 92.8 °F 66.9 °F 46% 29.98 in 10.0 mi WSW 12.7 mph - 0.00 in Rain Light Rain
12:01 PM 91.4 °F 94.0 °F 66.2 °F 43% 30.00 in 10.0 mi WSW 12.7 mph 23.0 mph 0.00 in   Partly Cloudy
12:53 PM 93.0 °F 96.4 °F 66.9 °F 42% 29.99 in 10.0 mi SW 16.1 mph 19.6 mph 0.00 in   Clear
1:09 PM 93.2 °F 97.7 °F 68.0 °F 44% 30.01 in 10.0 mi SSW 12.7 mph 19.6 mph N/A   Partly Cloudy
1:53 PM 95.0 °F 99.5 °F 68.0 °F 41% 29.98 in 10.0 mi SW 10.4 mph 20.7 mph N/A   Clear
2:53 PM 96.1 °F 99.9 °F 66.9 °F 38% 29.97 in 10.0 mi SW 11.5 mph 19.6 mph N/A   Clear
3:53 PM 97.0 °F 99.9 °F 64.9 °F 35% 29.97 in 10.0 mi SW 15.0 mph 20.7 mph N/A   Clear
4:53 PM 97.0 °F 99.9 °F 64.9 °F 35% 29.97 in 10.0 mi WSW 12.7 mph - N/A   Scattered Clouds
5:53 PM 95.0 °F 99.0 °F 66.9 °F 40% 29.96 in 10.0 mi SSW 13.8 mph 18.4 mph N/A   Mostly Cloudy
6:53 PM 95.0 °F 97.0 °F 64.0 °F 36% 29.96 in 10.0 mi SSW 13.8 mph - N/A   Clear
7:53 PM 93.0 °F 95.9 °F 66.0 °F 41% 29.97 in 10.0 mi SSW 9.2 mph - N/A   Clear
8:53 PM 87.1 °F 90.6 °F 68.0 °F 53% 29.97 in 10.0 mi South 6.9 mph - N/A   Clear
9:53 PM 82.9 °F 85.8 °F 68.0 °F 60% 29.99 in 10.0 mi South 6.9 mph - 0.00 in Rain Light Rain
10:53 PM 82.9 °F 85.0 °F 66.0 °F 56% 30.01 in 10.0 mi SSW 9.2 mph - 0.00 in   Clear
11:53 PM 82.9 °F 84.0 °F 63.0 °F 51% 30.02 in 10.0 mi SSW 10.4 mph - N/A   Clear